Weather History for Bluefield, WV

Change the Weather History Date:

Thursday, February 7, 2013

  Actual Average Record
Temperature  
Mean Temperature 39 °F 36 °F  
Max Temperature 43 °F 44 °F 63 °F (2005)
Min Temperature 35 °F 28 °F -5 °F (1978)
Degree Days  
Heating Degree Days 26 29  
Month to date heating degree days 233 207  
Since 1 July heating degree days 2809 2927  
Cooling Degree Days 0 0  
Month to date cooling degree days 0 0  
Year to date cooling degree days 1 0  
Moisture  
Dew Point 28 °F    
Average Humidity 69    
Maximum Humidity 89    
Minimum Humidity 48    
Precipitation  
Precipitation T in 0.10 in 1.22 in (1961)
Month to date precipitation 0.41 0.67  
Year to date precipitation 6.41 3.57  
Snow  
Snow 0.00 in - - ()
Month to date snowfall 6.0  
Since 1 July snowfall 34.5  
Snow Depth 0.00 in    
Sea Level Pressure  
Sea Level Pressure 30.13 in    
Wind  
Wind Speed 9 mph (SSE)    
Max Wind Speed 18 mph    
Max Gust Speed 29 mph    
Visibility 10 miles    
Events Rain    
T = Trace of Precipitation, MM = Missing Value Source: NWS Daily Summary

Daily Weather History Graph

Daily Weather History Graph

Search for Another Location

Airport:

Trip Planner

Search our weather history database for the weather conditions in past years. The results will help you decide how hot, cold, wet, or windy it might be!

Date:

Astronomy

Feb. 07, 2013 Rise Set
Actual Time 7:22 AM EST 5:56 PM EST
Civil Twilight 6:55 AM EST 6:23 PM EST
Nautical Twilight 6:24 AM EST 6:54 PM EST
Astronomical Twilight 5:53 AM EST 7:24 PM EST
Moon 4:58 AM EST (2/7) 3:20 PM EST (2/7)
Length of Visible Light 11h 28m
Length of Day
10h 34m
Waning Crescent, 9% of the Moon is Illuminated
Feb 7
Waning Crescent
Feb 10
New
Feb 17
First Quarter
Feb 25
Full
Mar 4
Last Quarter

Hourly Weather History & Observations

Time (EST) Temp. Windchill Dew Point Humidity Pressure Visibility Wind Dir Wind Speed Gust Speed Precip Events Conditions
1:52 AM 37.9 °F 35.5 °F 23.0 °F 55% 30.19 in 10.0 mi Variable 3.5 mph - N/A   Clear
2:52 AM 39.0 °F 31.8 °F 21.9 °F 50% 30.19 in 10.0 mi SSE 11.5 mph 19.6 mph N/A   Clear
3:52 AM 39.0 °F 31.8 °F 21.9 °F 50% 30.19 in 10.0 mi SE 11.5 mph 18.4 mph N/A   Clear
4:52 AM 37.0 °F 29.8 °F 21.0 °F 52% 30.20 in 10.0 mi SE 10.4 mph 21.9 mph N/A   Clear
5:52 AM 37.0 °F 28.9 °F 21.0 °F 52% 30.22 in 10.0 mi SSE 12.7 mph 20.7 mph N/A   Clear
6:52 AM 36.0 °F 28.5 °F 21.9 °F 57% 30.22 in 10.0 mi SSE 10.4 mph 17.3 mph N/A   Clear
7:52 AM 37.9 °F 31.5 °F 21.9 °F 53% 30.21 in 10.0 mi SSE 9.2 mph 23.0 mph N/A   Clear
8:52 AM 37.9 °F 28.9 °F 23.0 °F 55% 30.22 in 10.0 mi South 16.1 mph 27.6 mph N/A   Partly Cloudy
9:52 AM 39.9 °F 35.1 °F 25.0 °F 55% 30.21 in 10.0 mi Variable 6.9 mph 26.5 mph N/A   Scattered Clouds
10:52 AM 39.9 °F 35.8 °F 28.0 °F 63% 30.21 in 10.0 mi Variable 5.8 mph - N/A   Mostly Cloudy
11:52 AM 41.0 °F 34.7 °F 30.0 °F 65% 30.18 in 10.0 mi SSE 10.4 mph 18.4 mph N/A   Mostly Cloudy
12:52 PM 43.0 °F 40.3 °F 32.0 °F 65% 30.15 in 10.0 mi Variable 4.6 mph 16.1 mph N/A   Mostly Cloudy
1:52 PM 42.1 °F 37.7 °F 30.9 °F 65% 30.11 in 10.0 mi Variable 6.9 mph 19.6 mph N/A   Overcast
2:52 PM 42.1 °F 37.7 °F 30.9 °F 65% 30.09 in 10.0 mi Variable 6.9 mph 17.3 mph N/A   Mostly Cloudy
3:52 PM 42.1 °F 37.1 °F 30.9 °F 65% 30.09 in 10.0 mi SSE 8.1 mph 24.2 mph N/A   Clear
4:52 PM 41.0 °F 34.7 °F 32.0 °F 70% 30.10 in 10.0 mi SE 10.4 mph - N/A   Clear
5:32 PM 39.2 °F 31.2 °F 32.0 °F 75% 30.07 in 10.0 mi SSE 13.8 mph 19.6 mph N/A   Mostly Cloudy
5:52 PM 39.9 °F 34.5 °F 32.0 °F 73% 30.08 in 10.0 mi SSE 8.1 mph 18.4 mph N/A   Overcast
6:52 PM 39.0 °F 31.8 °F 33.1 °F 79% 30.09 in 10.0 mi SSE 11.5 mph 17.3 mph N/A   Overcast
7:52 PM 39.0 °F 32.8 °F 33.1 °F 79% 30.06 in 10.0 mi SE 9.2 mph 16.1 mph N/A   Overcast
8:52 PM 39.0 °F 34.0 °F 33.1 °F 79% 30.04 in 10.0 mi SE 6.9 mph - N/A   Overcast
9:52 PM 37.0 °F 32.4 °F 32.0 °F 82% 30.04 in 10.0 mi ESE 5.8 mph - 0.00 in Rain Light Rain
10:52 PM 36.0 °F 28.5 °F 32.0 °F 86% 30.02 in 10.0 mi SE 10.4 mph - 0.00 in Rain Light Rain
11:52 PM 35.1 °F 25.9 °F 30.9 °F 85% 29.99 in 10.0 mi SE 13.8 mph 21.9 mph 0.00 in   Overcast